Weather History for Bettles, AK

Change the Weather History Date:

Sunday, September 29, 2013

  Actual Average Record
Temperature  
Mean Temperature 34 °F -  
Max Temperature 37 °F 39 °F 55 °F (1966)
Min Temperature 32 °F 25 °F 1 °F (2004)
Degree Days  
Heating Degree Days 30    
Moisture  
Dew Point 27 °F    
Average Humidity 76    
Maximum Humidity 93    
Minimum Humidity 56    
Precipitation  
Precipitation 0.02 in - - ()
Sea Level Pressure  
Sea Level Pressure 29.68 in    
Wind  
Wind Speed 5 mph (NNW)    
Max Wind Speed 8 mph    
Max Gust Speed -    
Visibility 8 miles    
Events Snow    
Averages and records for this station are not official NWS values.
T = Trace of Precipitation, MM = Missing Value Source: NWS Daily Summary

Daily Weather History Graph

Daily Weather History Graph

Search for Another Location

Airport:

Trip Planner

Search our weather history database for the weather conditions in past years. The results will help you decide how hot, cold, wet, or windy it might be!

Date:

Astronomy

Sep. 29, 2013 Rise Set
Actual Time 8:12 AM AKDT 7:38 PM AKDT
Civil Twilight 7:19 AM AKDT 8:30 PM AKDT
Nautical Twilight 6:16 AM AKDT 9:33 PM AKDT
Astronomical Twilight 5:04 AM AKDT 10:44 PM AKDT
Moon 1:04 AM AKDT (9/29) 6:20 PM AKDT (9/29)
Length of Visible Light 13h 10m
Length of Day
11h 25m
Waning Crescent, 26% of the Moon is Illuminated
Sep 29
Waning Crescent
Oct 4
New
Oct 11
First Quarter
Oct 18
Full
Oct 26
Last Quarter

Hourly Weather History & Observations

Time (AKDT) Temp. Windchill Dew Point Humidity Pressure Visibility Wind Dir Wind Speed Gust Speed Precip Events Conditions
12:48 AM 33.8 °F 29.6 °F 28.4 °F 81% 29.51 in 6.0 mi North 4.6 mph - 0.00 in Snow Light Snow
12:53 AM 34.0 °F 31.0 °F 28.9 °F 82% 29.55 in 4.0 mi North 3.5 mph - 0.00 in Snow Light Snow
1:53 AM 32.0 °F 27.5 °F 28.9 °F 88% 29.56 in 5.0 mi NNW 4.6 mph - 0.01 in Snow Light Snow
2:00 AM 32.0 °F 27.5 °F 28.4 °F 87% 29.53 in 6.0 mi NNW 4.6 mph - 0.00 in Snow Light Snow
2:53 AM 32.0 °F 26.4 °F 28.0 °F 85% 29.57 in 10.0 mi NNW 5.8 mph - 0.00 in   Overcast
3:53 AM 33.1 °F 26.9 °F 27.0 °F 78% 29.59 in 10.0 mi NNW 6.9 mph - 0.00 in Snow Light Snow
4:53 AM 34.0 °F 28.0 °F 26.1 °F 73% 29.60 in 10.0 mi NNW 6.9 mph - 0.00 in Snow Light Snow
5:53 AM 34.0 °F 28.0 °F 25.0 °F 70% 29.61 in 10.0 mi NNW 6.9 mph - 0.00 in   Overcast
6:53 AM 34.0 °F 28.8 °F 25.0 °F 70% 29.63 in 10.0 mi NNW 5.8 mph - N/A   Overcast
7:53 AM 34.0 °F 27.2 °F 25.0 °F 70% 29.65 in 10.0 mi North 8.1 mph - 0.00 in Snow Light Snow
8:53 AM 34.0 °F 28.8 °F 26.1 °F 73% 29.66 in 6.0 mi North 5.8 mph - 0.00 in Snow Light Snow
9:28 AM 33.8 °F 28.6 °F 26.6 °F 75% 29.63 in 3.0 mi North 5.8 mph - 0.00 in Snow Light Snow
9:53 AM 33.1 °F 28.7 °F 28.0 °F 82% 29.68 in 2.5 mi North 4.6 mph - 0.00 in Snow Light Snow
10:36 AM 32.0 °F 26.4 °F 28.4 °F 87% 29.65 in 1.5 mi NW 5.8 mph - 0.00 in Snow Light Snow
10:53 AM 32.0 °F 26.4 °F 28.9 °F 88% 29.70 in 1.5 mi NNW 5.8 mph - 0.00 in Snow Light Snow
11:42 AM 32.0 °F 26.4 °F 30.2 °F 93% 29.67 in 2.0 mi NNW 5.8 mph - 0.01 in Snow Light Snow
11:53 AM 32.0 °F 26.4 °F 30.0 °F 92% 29.71 in 4.0 mi NNW 5.8 mph - 0.02 in Snow Light Snow
12:53 PM 32.0 °F 26.4 °F 30.0 °F 92% 29.73 in 4.0 mi NW 5.8 mph - 0.00 in   Overcast
1:53 PM 34.0 °F 28.0 °F 30.0 °F 85% 29.73 in 10.0 mi NNW 6.9 mph - 0.00 in Snow Light Snow
2:53 PM 35.1 °F 28.6 °F 28.9 °F 78% 29.73 in 10.0 mi NNW 8.1 mph - 0.00 in Snow Light Snow
3:53 PM 36.0 °F 29.6 °F 28.0 °F 73% 29.73 in 10.0 mi NW 8.1 mph - 0.00 in   Overcast
4:53 PM 37.0 °F 32.4 °F 27.0 °F 67% 29.74 in 10.0 mi NNW 5.8 mph - N/A   Overcast
5:53 PM 37.0 °F 33.3 °F 27.0 °F 67% 29.75 in 10.0 mi NW 4.6 mph - N/A   Overcast
6:53 PM 37.0 °F 34.5 °F 26.1 °F 65% 29.76 in 10.0 mi NW 3.5 mph - N/A   Overcast
7:53 PM 36.0 °F 31.1 °F 25.0 °F 64% 29.78 in 10.0 mi NW 5.8 mph - N/A   Overcast
8:53 PM 34.0 °F 29.8 °F 25.0 °F 70% 29.79 in 10.0 mi NW 4.6 mph - N/A   Overcast
9:53 PM 34.0 °F 31.0 °F 24.1 °F 67% 29.80 in 10.0 mi NW 3.5 mph - N/A   Overcast
10:53 PM 33.1 °F 28.7 °F 24.1 °F 70% 29.82 in 10.0 mi WNW 4.6 mph - N/A   Overcast
11:53 PM 33.1 °F 30.0 °F 25.0 °F 72% 29.83 in 10.0 mi NNW 3.5 mph - N/A   Overcast